EA3KZ-1 Weather Reports


time (UTC)temp
F
wind
direction
speed
knots
gust
knots
rain 1hr
in
rain 24hr
in
rain mn
in
humidity
%
barometer
mb
20260508024604 53 0.0 0.0 0.00 0.00 0.00 77 1007.6
20260508023602 53 0.0 0.0 0.00 0.00 0.00 77 1007.8
20260508022559 54 0.0 0.0 0.00 0.00 0.00 76 1007.9
20260508021556 54 0.0 1.7 0.00 0.00 0.00 74 1007.8
20260508020554 55 248 0.0 1.7 0.00 0.00 0.00 73 1007.9
20260508015551 54 270 0.0 1.7 0.00 0.00 0.00 75 1008.0
20260508014549 55 271 0.9 1.7 0.00 0.00 0.00 75 1008.0
20260508013546 55 270 0.9 1.7 0.00 0.00 0.00 75 1008.1
20260508012543 55 259 0.0 1.7 0.00 0.00 0.00 77 1008.2
20260508011541 55 0.0 0.0 0.00 0.00 0.00 75 1008.3
20260508010538 55 0.0 0.0 0.00 0.00 0.00 76 1008.4
20260508005536 55 0.0 1.7 0.00 0.00 0.00 77 1008.4
20260508004533 55 315 0.9 1.7 0.00 0.00 0.00 76 1008.4
20260508003530 55 0.0 1.7 0.00 0.00 0.00 78 1008.5
20260508002528 55 248 0.0 1.7 0.00 0.00 0.00 76 1008.6
20260508001525 55 218 0.0 1.7 0.00 0.00 0.00 78 1008.7
20260508000522 56 0.0 1.7 0.00 0.00 0.00 73 1008.8
20260507235520 56 272 0.9 1.7 0.00 0.00 0.00 75 1008.8
20260507234517 55 264 0.9 3.5 0.00 0.00 0.00 75 1009.0
20260507233514 56 197 0.9 3.5 0.00 0.00 0.00 77 1009.0
20260507232613 56 251 1.7 3.5 0.00 0.00 0.00 77 1009.0
20260507231610 55 281 0.9 3.5 0.00 0.00 0.00 80 1009.1
20260507230607 55 220 0.9 1.7 0.00 0.00 0.00 82 1009.2
20260507225604 55 293 0.9 1.7 0.00 0.00 0.00 84 1009.4
20260507224602 55 263 0.9 1.7 0.00 0.00 0.00 86 1009.5
20260507223559 56 0.0 0.0 0.00 0.00 0.00 86 1009.5
20260507222557 56 273 0.9 1.7 0.00 0.00 0.00 86 1009.6
20260507221554 56 226 1.7 3.5 0.00 0.00 0.00 86 1009.6
20260507220551 56 232 1.7 3.5 0.00 0.00 0.00 86 1009.6
20260507215549 56 230 2.6 5.2 0.00 0.00 0.00 85 1009.7
20260507214546 56 270 1.7 3.5 0.00 0.00 0.00 85 1009.7
20260507213544 56 270 0.0 1.7 0.00 0.00 0.00 85 1009.6
20260507212541 56 287 1.7 1.7 0.00 0.00 0.00 85 1009.7
20260507211538 57 285 1.7 1.7 0.00 0.00 0.00 85 1009.6
20260507210536 57 304 0.9 1.7 0.00 0.00 0.00 85 1009.7
20260507205533 57 58 0.9 1.7 0.00 0.00 0.00 84 1009.7
20260507204530 57 146 0.0 1.7 0.00 0.00 0.00 84 1009.6
20260507203528 57 94 0.9 1.7 0.00 0.00 0.00 84 1009.6
20260507202525 57 90 0.0 1.7 0.00 0.00 0.00 83 1009.5
20260507201523 58 32 0.9 1.7 0.00 0.00 0.00 82 1009.5
20260507200520 58 0.0 1.7 0.00 0.00 0.00 82 1009.3
20260507195517 58 30 0.0 1.7 0.00 0.00 0.00 81 1009.2
20260507194515 58 28 0.9 1.7 0.00 0.00 0.00 81 1009.0
20260507193612 58 350 1.7 5.2 0.00 0.00 0.00 80 1008.8
20260507192610 58 34 1.7 3.5 0.00 0.00 0.00 79 1008.6
20260507191607 58 97 0.9 3.5 0.00 0.00 0.00 79 1008.7
20260507190605 58 72 0.9 3.5 0.00 0.00 0.00 81 1008.5
20260507185602 58 348 0.9 3.5 0.00 0.00 0.00 81 1008.2
20260507184559 59 37 0.9 3.5 0.00 0.00 0.00 80 1008.2
20260507183557 59 153 1.7 5.2 0.00 0.00 0.00 79 1008.2
20260507182554 59 48 1.7 5.2 0.00 0.00 0.00 78 1008.0
20260507181552 60 96 1.7 3.5 0.00 0.00 0.00 78 1007.9
20260507180549 60 209 3.5 6.1 0.00 0.00 0.00 77 1007.8
20260507175546 61 113 1.7 3.5 0.00 0.00 0.00 75 1007.7
20260507174544 60 32 4.3 7.8 0.00 0.00 0.00 74 1007.7
20260507173541 61 128 1.7 5.2 0.00 0.00 0.00 74 1007.6
20260507172538 61 161 0.9 3.5 0.00 0.00 0.00 73 1007.6
20260507171536 62 86 2.6 7.8 0.00 0.00 0.00 71 1007.5
20260507170533 62 77 1.7 5.2 0.00 0.00 0.00 71 1007.3
20260507165531 61 28 3.5 7.8 0.00 0.00 0.00 71 1007.4
20260507164528 62 8 2.6 6.1 0.00 0.00 0.00 69 1007.4
20260507163526 62 48 3.5 9.6 0.00 0.00 0.00 70 1007.3
20260507162523 63 102 2.6 9.6 0.00 0.00 0.00 70 1007.3
20260507161520 63 356 3.5 9.6 0.00 0.00 0.00 68 1007.4
20260507160518 63 63 3.5 9.6 0.00 0.00 0.00 68 1007.3
20260507155515 62 47 4.3 9.6 0.00 0.00 0.00 68 1007.4
20260507154613 64 131 2.6 7.0 0.00 0.00 0.00 64 1007.4
20260507153610 65 118 3.5 9.6 0.00 0.00 0.00 62 1007.3
20260507152608 65 65 1.7 6.1 0.00 0.00 0.00 62 1007.3
20260507151605 64 34 3.5 6.1 0.00 0.00 0.00 63 1007.3
20260507150602 66 21 1.7 7.0 0.00 0.00 0.00 61 1007.4
20260507145600 64 91 3.5 7.0 0.00 0.00 0.00 62 1007.6
20260507144557 65 62 3.5 9.6 0.00 0.00 0.00 62 1007.7
20260507143555 64 70 3.5 7.0 0.00 0.00 0.00 64 1007.6
20260507142552 66 146 1.7 5.2 0.00 0.00 0.00 62 1008.0
20260507141549 65 338 2.6 7.8 0.00 0.00 0.00 63 1007.8
20260507140547 64 346 3.5 7.0 0.00 0.00 0.00 64 1007.9
20260507135544 66 128 1.7 6.1 0.00 0.00 0.00 61 1007.9
20260507134542 64 55 4.3 9.6 0.00 0.00 0.00 64 1008.1
20260507133539 64 342 6.1 14.8 0.00 0.00 0.00 64 1008.1
20260507132536 65 77 5.2 13.0 0.00 0.00 0.00 64 1008.1
20260507131534 64 46 4.3 9.6 0.00 0.00 0.00 67 1008.3
20260507130531 66 2 4.3 13.0 0.00 0.00 0.00 64 1008.4
20260507125529 66 60 4.3 13.0 0.00 0.00 0.00 64 1008.5
20260507124526 65 198 3.5 9.6 0.00 0.00 0.00 65 1008.5
20260507123523 66 197 3.5 11.3 0.00 0.00 0.00 64 1008.4
20260507122521 66 47 5.2 12.2 0.00 0.00 0.00 65 1008.4
20260507121518 67 118 2.6 7.0 0.00 0.00 0.00 62 1008.6
20260507120515 66 15 6.1 13.9 0.00 0.00 0.00 64 1008.5
20260507115613 67 164 2.6 7.8 0.00 0.00 0.00 62 1008.6
20260507114610 66 331 3.5 7.8 0.00 0.00 0.00 64 1008.6
20260507113608 65 42 4.3 9.6 0.00 0.00 0.00 66 1008.7
20260507112605 65 82 2.6 7.0 0.00 0.00 0.00 66 1008.8
20260507111603 65 163 1.7 5.2 0.00 0.00 0.00 66 1008.9
20260507110600 65 80 2.6 7.8 0.00 0.00 0.00 66 1009.0
20260507105557 67 141 1.7 7.0 0.00 0.00 0.00 63 1009.1
20260507104555 67 173 1.7 6.1 0.00 0.00 0.00 61 1009.2
20260507103552 66 52 1.7 3.5 0.00 0.00 0.00 61 1009.3
20260507102550 66 127 1.7 6.1 0.00 0.00 0.00 61 1009.5
20260507101547 67 161 1.7 3.5 0.00 0.00 0.00 61 1009.4
20260507100545 66 38 1.7 6.1 0.00 0.00 0.00 62 1009.4
20260507095542 66 84 1.7 3.5 0.00 0.00 0.00 64 1009.6
20260507094539 63 1 4.3 7.8 0.00 0.00 0.00 69 1009.6
20260507093537 61 0 0.9 1.7 0.00 0.00 0.00 71 1009.8
20260507092534 61 12 1.7 3.5 0.00 0.00 0.00 71 1009.7
20260507091532 63 0 0.9 3.5 0.00 0.00 0.00 69 1009.5
20260507090559 61 144 0.9 3.5 0.00 0.00 0.00 72 1009.4
20260507085556 62 94 2.6 5.2 0.00 0.00 0.00 70 1009.5
20260507084554 61 36 2.6 7.0 0.00 0.00 0.00 72 1009.5
20260507083551 60 71 2.6 6.1 0.00 0.00 0.00 73 1009.5
20260507082548 61 46 1.7 5.2 0.00 0.00 0.00 72 1009.6
20260507081546 60 12 2.6 9.6 0.00 0.00 0.00 75 1009.6
20260507080543 60 89 1.7 3.5 0.00 0.00 0.00 78 1009.7
20260507075541 60 78 0.0 1.7 0.00 0.00 0.00 79 1009.8
20260507074538 58 55 0.9 3.5 0.00 0.00 0.00 82 1009.8
20260507073535 57 342 2.6 5.2 0.00 0.00 0.00 81 1009.7
20260507072533 57 359 1.7 5.2 0.00 0.00 0.00 80 1009.9
20260507071530 57 3 0.9 3.5 0.00 0.00 0.00 79 1009.8
20260507070528 58 99 0.9 3.5 0.00 0.00 0.00 78 1009.6
20260507065525 58 110 0.0 3.5 0.00 0.00 0.00 76 1009.5
20260507064522 59 45 0.0 1.7 0.00 0.00 0.00 74 1009.3
20260507063520 58 346 1.7 3.5 0.00 0.00 0.00 75 1009.3
20260507062517 59 81 0.9 1.7 0.00 0.00 0.00 74 1009.0
20260507061515 58 30 0.9 3.5 0.00 0.00 0.00 76 1009.0
20260507060612 56 296 1.7 3.5 0.00 0.00 0.00 78 1008.9
20260507055609 56 274 0.9 3.5 0.00 0.00 0.00 79 1008.9
20260507054607 56 276 0.9 1.7 0.00 0.00 0.00 79 1008.9
20260507053604 56 281 0.0 1.7 0.00 0.00 0.00 80 1008.8
20260507052602 55 0.0 0.0 0.00 0.00 0.00 82 1008.6
20260507051559 54 287 0.9 3.5 0.00 0.00 0.00 83 1008.5
20260507050557 53 282 0.9 3.5 0.00 0.00 0.00 85 1008.5
20260507045554 53 260 0.0 1.7 0.00 0.00 0.00 85 1008.5
20260507044551 53 315 0.0 1.7 0.00 0.00 0.00 85 1008.4
20260507043549 53 290 0.9 3.5 0.00 0.00 0.00 86 1008.5
20260507042546 53 268 0.9 3.5 0.00 0.00 0.00 86 1008.5
20260507041544 52 285 0.0 1.7 0.00 0.00 0.00 86 1008.4
20260507040541 52 0.0 0.0 0.00 0.00 0.00 86 1008.5
20260507035538 52 0.0 1.7 0.00 0.00 0.00 86 1008.5
20260507034536 53 256 0.9 1.7 0.00 0.00 0.00 86 1008.4
20260507033533 53 0.0 0.0 0.00 0.00 0.00 86 1008.5
20260507032531 52 0.0 0.0 0.00 0.00 0.00 86 1008.6
20260507031528 53 0.0 1.7 0.00 0.00 0.00 86 1008.8
20260507030525 53 0.0 0.0 0.00 0.00 0.00 86 1008.7
20260507025523 53 282 0.9 3.5 0.00 0.00 0.00 85 1008.5